sat.trackr.live / text

‹ back to catalog

STARLINK-35179

NORAD 66066 · 2025-235J

PAYLOAD ACTIVE UNKNOWN

§ Identity

Operator
Country
US
Launch date
2025-10-19
Launch site
AFETR
Launch vehicle
Mass (kg)
RCS (m²)

Purposes: comms

External: N2YO · Heavens-Above · Gunter

§ Orbital elements

Epoch: 2026-09-20T22:07:02.583552Z

Period
93.85 min
Inclination
53.1585°
Eccentricity
0.0000873
Mean motion
15.34400400 rev/d
Perigee alt
462.1 km
Apogee alt
463.3 km
Semi-major
6,840.8 km
B*
4.3948e-4
RAAN
57.6415°
Arg perigee
85.9183°
Mean anomaly
274.1920°
Rev number
5,282

§ Raw data

STARLINK-351791 66066U 25235J   26263.92155768  .00014501  00000+0  43948-3 0  99942 66066  53.1585  57.6415 0000873  85.9183 274.1920 15.34400400 52826

JSON: /api/v1/satellites/66066 · /tle

For live sub-satellite position, see the globe view (requires WebGL).

§ Visibility from observer

Set your observer location to see the next 7 days of passes ≥ 10°. The values pass through the URL so the page stays shareable.

No JS? Fill the form by hand. The geolocation button needs JavaScript.